DELTA 1 DEB, 9976

Orbit data source: Space-Track

DELTA 1 DEB, 9976 is space debris in SSO originally from a launch on Tue, 06 Nov 1973 UTC launched from the Air Force Western Test Range (AFWTR). Debris objects in space refer to the collection of defunct objects orbiting the Earth. Examples of debris include non-operational satellites, rocket bodies, and fragments generated from explosions, collisions, or faulty payload assembly.

Loading next visibility...
Identifier
9976, 1973-086GF
Orbit
SSO
Country
Flag of USUS
Related business
Manufacturer
Unknown
Mission
Spacecraft
Bus & Motor
Unknown
Mass
Unknown
Launch date (UTC)
1973-11-06 (52 years ago)
Launch vehicle
Unknown
Launch site
Air Force Western Test Range (AFWTR)
Object type
Payload
Rocket body
Debris
Shape & HBR
Unknown shape, 0.1 m
Radar Cross Section
Small (<0.1 m²)

Expand to show TLE details & history
Last TLE update: 3 days ago

TLE from 3 days ago
0 DELTA 1 DEB
1 09976U 73086GF  25295.00474770  .00000069  00000-0  91608-3 0  9999
2 09976 102.3883 310.6386 0040920 304.0395 114.6254 12.35417643266838
Epoch: 2025-10-22T00:06Z
TLE epoch observation values (Epoch: 2025-10-22T00:06:50.201Z)
Latitude
57.02277°
Longitude
-101.44204°
Altitude
1,549.005 km
Speed
7.091 km/s
True Right ascension
19h 23m 48s
True Declination
56° 52' 53"
Sunlit
Object was in daylight at epoch
Visualization orbit readout
Latitude
Unknown
Longitude
Unknown
Altitude
Unknown
Speed
Unknown
Apparent Right ascension
Unknown
Apparent Declination
Unknown
Sunlit
N/A
Visualization observer readout
Local Sidereal Time
20:01:36
Azimuth
Unknown
Elevation
Unknown
Doppler factor
Unknown
Orbital elements
Apogee altitude
1,556.027 km
Perigee altitude
1,491.358 km
Semi-major axis
7,901.829 km
Eccentricity
0.00409
Inclination
102.3883°
RAAN
310.6386°
Arg. of periapsis
304.0395°
True anomaly
115.05075°
Mean anomaly
114.6254°
Eccentric anomaly
114.83817°
Mean motion
3.08995 °/min
Orbital period
116.51 mins
BSTAR
0.00091608
Loading maneuver chart data...
Computing Atmospheric mass density...

Documentation

Showing up to 5 results
|